User: anonymous   Login
Location: Unspecified
(0.0000°N, 0.0000°E)
Time: 04:12:52
(UTC+00:00)
Language:

STARLINK-35311 - Orbit

View from above orbital plane
View from above orbital plane
View from above satellite
View from above satellite

Ground track
Ground track

The orbit is defined by the following mean orbital elements,

1 66032U          26145.21848188 +.00000000 +00000-0 +19305-3 0 00009
2 66032  53.1613 108.3415 0001071 101.8856 258.2267 15.34405420    08
Epoch (UTC): 25 May 2026 05:14:36
Eccentricity: 0.0001071
inclination: 53.1613°
perigee height: 462 km
apogee height: 463 km
right ascension of ascending node: 108.3415°
argument of perigee: 101.8856°
revolutions per day: 15.34405420
mean anomaly at epoch: 258.2267°

The dashed part of the orbit path shows where the satellite is in the earth's shadow,  

DLR